sat.trackr.live / text

‹ back to catalog

RASAT

NORAD 37791 · 2011-044D

PAYLOAD ACTIVE UNKNOWN

§ Identity

Operator
Country
TURK
Launch date
2011-08-17
Launch site
DLS
Launch vehicle
Mass (kg)
RCS (m²)
0.58

Purposes: earth_obs

External: N2YO · Heavens-Above · Gunter

§ Orbital elements

Epoch: 2026-09-20T05:56:40.710624Z

Period
98.08 min
Inclination
98.0554°
Eccentricity
0.0019183
Mean motion
14.68240347 rev/d
Perigee alt
653.2 km
Apogee alt
680.2 km
Semi-major
7,044.8 km
B*
8.2463e-5
RAAN
353.1872°
Arg perigee
250.0046°
Mean anomaly
167.8191°
Rev number
80,713

§ Raw data

RASAT1 37791U 11044D   26263.24769341  .00000427  00000+0  82463-4 0  99912 37791  98.0554 353.1872 0019183 250.0046 167.8191 14.68240347807139

JSON: /api/v1/satellites/37791 · /tle

For live sub-satellite position, see the globe view (requires WebGL).

§ Visibility from observer

Set your observer location to see the next 7 days of passes ≥ 10°. The values pass through the URL so the page stays shareable.

No JS? Fill the form by hand. The geolocation button needs JavaScript.